Temperature
12 12 12 12 12 12 12 12 12 12 12 12 11 11 11 11 11 11 11 11 11 11 10 10 10 10 10 9 9 10 9 9 9 9 9 9 9 9 9 9 9 9 9
12 12 12 12 12 12 12 12 12 11 11 11 11 11 11 11 11 11 11 11 11 10 10 10 10 10 9 9 9 9 9 9 9 9 9 9 9 9 9 9 9 9 9
12 12 12 12 12 11 11 11 11 11 11 11 11 11 11 10 10 10 10 10 10 10 10 10 10 10 9 9 9 9 9 9 9 9 9 9 9 9 9 8 8 8 8
11 11 11 11 11 11 11 11 11 11 11 10 10 10 10 10 10 10 10 10 10 10 10 10 10 9 9 9 9 9 8 8 8 8 8 8 8 8 8 8 8 8 8
10 11 11 11 11 11 10 10 10 10 10 10 10 10 10 10 10 9 9 9 9 9 9 9 9 9 9 9 9 8 8 8 8 8 8 8 8 8 8 8 8 8 8
10 10 10 10 10 10 10 10 10 10 10 10 10 10 9 9 9 9 9 9 9 9 9 9 9 9 9 8 8 8 8 8 8 8 8 8 8 8 8 8 8 7 7
10 10 10 10 10 10 10 10 10 10 9 9 9 9 9 9 9 9 9 8 8 8 8 8 8 8 8 8 8 8 8 8 8 8 8 8 7 7 7 7 7 7 7
9 9 9 9 9 9 9 9 9 9 9 9 9 8 8 8 8 8 8 8 8 8 8 8 8 8 8 8 7 7 7 7 7 7 7 7 7 7 7 7 7 7 7
9 9 9 9 9 9 9 9 9 9 9 8 8 8 8 7 7 7 7 7 7 7 7 7 7 7 7 7 7 7 7 7 7 7 7 7 7 7 7 7 7 7 7
8 8 8 9 9 9 9 8 8 8 8 8 8 8 8 8 7 6 6 7 7 6 6 6 6 7 7 7 7 7 7 7 6 6 6 6 6 6 6 6 6 6 6
8 8 8 8 8 8 8 8 8 8 8 8 8 8 7 7 7 7 6 6 6 6 6 6 6 6 6 6 6 6 6 6 6 6 6 6 6 6 6 6 6 6 6
7 7 8 8 8 8 8 8 7 8 7 7 7 7 7 7 7 7 7 6 6 6 6 6 6 6 6 6 6 6 6 6 6 6 6 6 6 6 6 5 5 5 5
7 7 7 7 7 7 7 7 7 7 7 7 7 7 7 7 7 7 7 6 5 5 5 5 5 5 5 5 5 5 5 5 6 5 5 5 5 5 5 5 5 5 5
6 6 6 7 7 7 7 7 7 7 6 6 7 7 7 7 7 6 6 6 5 5 5 5 5 5 5 5 5 5 5 5 5 5 5 5 5 5 5 5 5 5 4
6 6 6 6 6 6 6 6 6 6 6 6 6 6 6 6 6 6 6 6 6 5 4 4 5 5 5 5 5 5 5 4 4 4 4 4 4 4 4 4 4 4 4
5 5 5 5 5 6 5 5 5 6 5 5 6 6 6 6 6 6 5 5 5 5 4 4 4 4 4 4 4 4 4 4 4 4 4 4 4 4 4 3 3 3 3
5 5 5 5 5 5 5 5 5 5 5 5 5 5 5 5 5 5 5 5 5 5 4 4 4 4 4 4 4 4 4 4 4 4 3 3 3 3 3 3 3 3 3
4 4 4 4 4 4 4 4 4 5 5 4 4 4 4 4 4 4 4 4 4 4 4 4 4 4 4 3 3 3 4 4 4 3 3 3 3 2 2 2 2 2 2
4 4 4 4 4 4 4 4 4 4 4 4 4 4 4 4 4 4 4 3 4 3 3 3 3 3 3 3 3 3 3 3 3 3 3 3 2 2 2 2 2 2 2
3 3 3 3 3 3 3 3 3 3 3 3 3 3 3 3 3 3 3 3 3 3 3 3 3 3 3 3 3 3 3 3 3 3 3 2 2 2 2 1 1 1 1
3 3 3 3 3 3 3 3 3 3 3 3 3 3 3 3 3 3 2 2 2 2 2 2 2 2 2 2 2 2 2 2 2 2 2 2 2 2 1 1 1 1 1
2 2 2 2 2 2 2 2 2 2 2 2 2 2 2 2 2 2 2 2 2 2 2 1 1 1 2 2 1 1 1 1 1 2 2 2 1 1 1 1 0 0 0
2 1 1 1 1 1 2 2 2 2 2 2 2 2 2 2 2 2 2 2 2 1 1 1 1 1 1 1 1 1 1 1 1 1 1 1 1 1 1 0 0 0 -0
1 1 1 1 1 1 1 1 1 1 1 1 1 1 1 1 1 1 1 1 1 1 1 1 1 1 0 0 0 1 1 1 1 0 0 0 0 0 0 -0 -0 -0 -0
0 0 0 0 0 0 0 0 0 0 0 0 1 1 1 1 0 1 0 1 1 1 0 0 0 0 0 0 0 0 -0 -0 0 0 -0 -1 -0 -0 -0 -0 -0 -1 -1
-0 -0 -0 -0 -0 -0 -0 -0 -0 -0 -0 0 0 0 0 0 0 -0 -0 0 0 0 -0 -0 -0 -0 -0 -0 -0 -0 -1 -1 -1 -1 -1 -1 -1 -1 -1 -1 -1 -1 -1
Wind_Speed
3 3 3 3 4 4 4 4 4 3 3 3 3 4 4 4 4 4 3 3 3 3 3 3 2 3 3 3 2 2 2 2 2 2 2 3 3 4 4 4 5 6 7
4 3 3 3 3 4 5 5 4 3 3 3 3 3 4 5 4 4 3 3 3 3 2 2 2 2 2 2 2 2 1 1 1 2 2 2 3 3 4 4 4 5 6
4 3 3 3 3 4 5 4 4 4 3 3 2 3 3 4 4 4 3 3 3 2 2 2 2 1 2 2 2 2 2 1 2 2 2 2 3 3 3 4 4 5 7
5 4 3 2 4 4 4 3 3 3 2 2 2 1 2 3 3 3 3 3 2 2 2 2 2 2 2 2 2 2 2 2 2 2 3 3 3 3 3 4 4 5 7
5 4 3 3 4 4 3 3 2 3 3 2 1 1 1 1 1 2 2 3 2 2 2 2 2 2 3 3 3 3 3 3 3 3 3 4 3 3 4 4 5 5 6
5 4 3 3 4 3 2 2 3 2 3 2 2 2 1 1 1 1 1 2 2 2 2 2 2 2 3 4 4 4 4 3 3 4 4 4 4 4 5 5 5 6 6
5 4 3 3 3 3 3 3 3 4 2 2 2 2 2 2 1 0 1 1 2 2 2 2 2 2 2 4 5 5 5 4 4 4 5 4 5 5 5 6 6 6 7
5 5 5 4 4 3 3 3 3 3 2 2 3 2 0 2 2 1 0 0 0 2 2 2 2 3 3 3 4 5 5 5 4 5 5 5 6 6 6 6 6 7 8
4 4 4 4 4 4 4 4 4 3 4 3 2 3 3 3 1 1 1 0 0 0 1 1 2 2 2 3 4 4 6 6 6 6 6 7 6 6 7 7 7 7 8
3 4 4 4 4 4 4 4 3 2 4 4 2 1 2 3 2 1 1 1 1 1 1 1 1 1 2 2 3 4 5 6 6 7 7 7 8 7 7 8 8 8 8
2 3 4 4 4 3 3 3 3 2 2 3 3 2 1 1 1 2 2 2 2 2 1 1 1 1 1 1 2 3 4 5 6 7 8 8 8 8 7 7 8 8 9
1 2 4 4 4 3 3 3 3 3 2 2 2 3 3 2 3 2 3 3 3 2 2 1 1 1 0 1 2 3 4 5 6 7 7 8 8 8 7 8 8 8 9
1 2 2 4 3 3 3 3 2 3 2 3 2 2 2 2 2 2 2 2 2 2 1 1 2 1 1 2 3 4 4 4 5 5 6 7 7 8 7 7 8 8 9
2 2 2 3 3 3 3 3 2 2 2 2 2 2 1 2 2 2 3 2 2 2 2 3 2 2 2 3 4 3 3 4 4 5 6 7 7 7 7 7 7 8 8
2 3 2 2 3 3 3 3 2 2 2 1 2 1 1 1 2 2 2 3 3 3 4 3 2 2 2 3 4 3 4 5 5 5 6 6 6 6 6 7 7 7 8
2 3 2 2 2 3 3 2 2 2 2 1 1 1 1 1 0 1 2 1 2 3 3 3 3 2 3 3 4 3 5 5 5 5 5 6 6 5 6 6 7 7 7
2 3 2 2 2 2 3 3 2 2 2 1 1 2 1 1 0 0 1 1 1 2 3 3 2 2 2 2 3 3 4 4 5 5 5 5 5 5 6 6 7 6 7
2 2 2 2 2 2 2 3 3 3 3 3 2 2 2 1 1 0 1 1 2 2 3 3 2 2 2 3 2 3 3 4 4 5 5 4 4 5 6 6 6 6 6
2 2 2 2 2 2 2 3 3 3 3 3 3 3 2 2 2 1 1 1 2 1 1 2 2 2 2 2 2 2 3 3 4 5 5 5 5 6 6 6 6 6 6
2 2 2 2 2 2 2 3 3 3 2 2 2 3 3 4 4 3 2 2 1 1 1 1 2 2 2 2 1 2 3 2 3 4 4 5 5 5 5 5 5 5 6
2 2 1 1 2 2 3 3 3 3 2 1 1 2 3 3 4 3 2 2 2 1 1 1 2 2 1 1 2 2 3 3 3 2 2 3 3 3 5 6 6 6 6
2 2 1 1 1 2 3 4 4 3 3 2 2 2 2 2 3 3 3 2 3 2 2 2 3 3 3 3 2 2 2 2 3 2 1 4 2 3 4 6 7 7 6
2 2 1 1 2 2 3 3 4 3 3 3 2 2 2 2 2 2 2 2 2 3 3 3 4 4 4 4 3 3 3 2 3 2 1 3 2 3 5 7 7 7 6
2 2 1 1 2 3 3 3 3 2 2 2 2 3 3 2 2 2 2 2 2 3 4 3 4 5 4 3 4 4 4 3 3 2 1 3 2 3 4 6 7 6 6
2 2 1 1 2 3 3 3 2 1 1 2 2 2 3 3 4 2 2 3 2 3 3 4 5 5 5 4 2 1 1 1 3 3 1 1 2 3 3 3 5 5 6
2 2 1 1 2 2 3 3 3 1 1 2 2 2 3 3 3 3 2 3 3 3 2 2 3 4 4 4 4 3 3 2 2 2 2 1 1 1 2 2 3 4 6
Wind_Direction
150 147 148 152 144 144 140 133 129 120 113 106 97 98 101 109 108 100 92 86 87 93 98 103 99 96 96 92 81 75 72 66 56 53 34 23 21 18 17 18 13 4 355
146 147 146 150 152 156 156 148 140 128 124 111 99 97 102 109 108 101 88 82 76 71 75 95 92 83 81 78 68 56 43 29 32 29 10 7 6 7 5 3 360 357 350
143 138 145 150 155 153 146 135 124 114 112 104 99 93 98 106 108 106 102 90 73 58 55 60 63 66 55 40 39 22 9 356 346 347 347 345 344 345 349 352 349 349 348
148 137 143 157 154 147 133 141 134 126 114 109 100 87 82 97 101 106 111 110 95 70 52 52 38 29 26 10 0 348 341 334 327 324 327 327 324 327 332 337 337 337 336
153 140 144 147 148 140 138 151 143 139 134 117 108 87 71 84 80 94 100 110 112 109 83 41 34 29 23 10 354 336 333 328 326 325 320 311 313 319 321 322 325 329 325
152 141 140 144 138 144 145 143 150 136 139 137 106 62 27 21 60 84 98 98 98 101 102 81 63 33 12 5 358 347 331 312 324 325 324 316 316 314 311 309 312 315 316
153 146 144 149 145 155 163 150 150 143 145 134 102 50 12 10 8 22 66 77 66 75 89 86 76 50 18 0 352 343 338 325 326 325 320 321 318 316 321 318 318 319 318
158 159 157 162 158 152 154 157 147 161 173 171 140 127 65 340 337 328 288 128 45 66 63 66 74 68 55 36 3 352 341 339 339 333 324 319 313 314 318 318 316 318 322
158 163 165 160 159 163 175 182 178 174 184 201 175 154 166 211 256 313 299 288 238 352 11 64 62 68 57 49 25 2 349 343 337 333 329 329 322 321 323 320 316 316 319
164 163 158 159 162 166 176 186 192 181 176 192 207 200 182 164 175 221 287 284 254 236 248 284 90 84 65 45 14 353 346 341 333 331 327 327 324 322 318 317 321 325 325
172 168 161 161 165 170 180 186 182 176 181 194 196 188 167 148 177 183 229 255 279 258 242 213 165 114 83 27 348 340 336 333 333 333 331 326 324 318 322 325 327 329 330
185 175 165 164 168 172 182 189 185 175 187 184 198 191 186 189 196 189 213 226 244 260 248 215 207 196 196 332 308 325 322 321 324 327 328 327 326 323 327 328 327 327 330
206 200 181 170 172 173 170 171 174 178 179 181 194 213 205 210 198 193 195 217 238 257 241 238 227 217 262 278 287 300 303 306 314 322 324 326 325 326 327 327 328 328 330
197 188 182 173 170 165 161 161 170 176 173 175 191 193 212 221 212 204 197 190 226 265 257 251 242 239 267 268 281 282 297 301 307 312 315 320 323 325 328 328 328 328 330
185 164 165 174 167 162 160 161 165 170 160 170 174 183 219 241 214 216 203 188 187 230 250 248 248 254 257 259 276 275 287 290 296 301 307 315 320 326 332 330 327 327 332
173 158 157 168 167 160 156 155 154 154 146 162 162 161 220 242 238 214 203 206 198 207 241 241 239 253 250 272 278 272 272 284 287 292 301 310 317 323 328 328 324 324 330
170 167 167 168 175 170 163 158 164 158 151 159 165 170 210 219 195 272 222 204 212 200 237 264 254 258 237 260 288 280 275 270 278 285 297 306 316 322 324 324 325 325 326
176 168 160 165 173 179 170 165 171 172 171 179 192 182 207 194 168 245 244 231 231 220 213 249 271 264 253 248 260 266 284 282 283 281 292 300 310 319 322 325 328 326 326
153 145 151 168 179 179 176 172 172 175 182 191 195 195 206 189 205 222 224 235 240 234 211 223 261 268 266 262 271 283 281 279 293 287 289 292 296 305 313 319 322 324 329
152 150 165 179 178 174 179 172 167 165 178 194 203 204 207 204 209 211 214 215 216 207 196 207 248 275 274 267 248 266 290 293 293 298 298 297 295 300 302 306 309 316 322
159 155 149 170 183 183 193 177 171 171 178 191 215 220 219 211 210 211 209 208 198 200 212 228 243 268 273 263 264 263 278 297 285 280 293 293 286 283 292 292 292 303 312
143 142 156 180 196 218 200 190 181 181 184 188 210 231 226 218 222 227 220 211 202 200 215 230 249 251 259 254 256 261 270 302 291 279 289 290 269 272 272 277 286 296 301
151 150 166 183 221 234 210 204 195 181 184 200 212 225 244 240 225 228 239 247 238 235 223 222 242 252 251 243 237 245 246 255 260 259 277 280 276 274 273 282 287 289 295
167 179 186 204 233 236 219 211 194 178 179 209 224 226 228 245 237 217 219 235 246 250 249 246 244 252 254 240 222 234 239 252 274 267 221 258 272 278 291 281 284 288 297
195 207 204 197 235 247 226 207 194 177 205 235 242 233 231 243 245 230 209 230 257 273 278 267 269 277 283 282 270 228 244 252 286 276 227 227 264 293 288 271 274 283 297
223 213 219 220 237 246 228 216 202 190 210 244 253 246 244 248 248 230 219 222 242 262 275 301 298 292 289 282 267 230 218 235 277 272 230 228 256 302 296 276 273 280 286
Height
1522 1523 1524 1526 1527 1528 1529 1530 1531 1533 1534 1535 1536 1536 1536 1537 1537 1537 1537 1537 1537 1537 1537 1537 1537 1537 1537 1536 1536 1535 1535 1534 1534 1533 1532 1531 1531 1530 1529 1528 1527 1526 1525
1520 1521 1522 1523 1525 1526 1527 1528 1530 1531 1532 1533 1534 1535 1535 1535 1536 1536 1536 1536 1536 1536 1536 1536 1536 1535 1535 1535 1535 1534 1534 1533 1532 1532 1531 1530 1529 1528 1527 1526 1525 1524 1523
1518 1519 1520 1521 1522 1524 1525 1526 1528 1529 1530 1532 1533 1533 1534 1534 1535 1535 1535 1535 1535 1535 1535 1534 1534 1534 1534 1534 1533 1532 1532 1531 1531 1530 1529 1528 1527 1526 1525 1524 1523 1522 1521
1516 1517 1518 1519 1520 1522 1523 1524 1525 1527 1528 1530 1531 1532 1532 1533 1533 1533 1534 1534 1534 1533 1533 1533 1533 1532 1532 1532 1531 1531 1530 1529 1529 1528 1527 1526 1525 1524 1523 1522 1521 1520 1519
1513 1514 1516 1517 1518 1519 1521 1522 1524 1525 1526 1528 1529 1529 1530 1531 1531 1531 1532 1532 1532 1532 1531 1531 1531 1530 1530 1530 1529 1529 1528 1527 1527 1526 1524 1524 1523 1522 1521 1520 1519 1518 1516
1510 1512 1513 1515 1516 1517 1518 1520 1521 1523 1524 1525 1526 1527 1528 1529 1529 1529 1529 1530 1529 1529 1529 1529 1528 1528 1528 1527 1527 1526 1525 1525 1524 1523 1522 1521 1520 1519 1518 1517 1516 1515 1514
1507 1509 1510 1512 1513 1514 1515 1517 1518 1520 1521 1523 1524 1524 1525 1526 1527 1527 1527 1527 1527 1527 1527 1527 1526 1526 1525 1525 1524 1524 1523 1522 1521 1521 1519 1518 1517 1517 1515 1514 1513 1512 1511
1504 1506 1507 1509 1510 1512 1513 1514 1515 1516 1518 1519 1520 1521 1522 1524 1523 1524 1524 1524 1524 1525 1525 1524 1524 1523 1523 1522 1521 1521 1520 1519 1518 1518 1517 1516 1515 1514 1513 1512 1510 1509 1507
1501 1503 1505 1506 1507 1509 1510 1511 1512 1513 1514 1516 1517 1519 1519 1519 1519 1520 1521 1521 1522 1522 1522 1522 1521 1520 1520 1519 1519 1518 1517 1516 1516 1515 1514 1513 1512 1511 1510 1509 1507 1505 1504
1498 1500 1501 1503 1504 1506 1507 1508 1509 1510 1511 1512 1514 1515 1516 1516 1517 1516 1518 1518 1518 1518 1519 1519 1518 1518 1517 1517 1516 1515 1514 1514 1513 1512 1511 1510 1509 1508 1507 1506 1504 1502 1500
1495 1497 1499 1500 1501 1503 1504 1505 1506 1507 1508 1509 1510 1511 1512 1513 1513 1513 1513 1514 1515 1515 1515 1515 1515 1515 1514 1514 1513 1512 1512 1511 1510 1509 1508 1507 1506 1505 1504 1503 1501 1499 1497
1492 1494 1495 1497 1498 1500 1501 1502 1503 1504 1505 1506 1506 1507 1508 1509 1510 1510 1509 1509 1510 1511 1511 1511 1511 1512 1511 1511 1510 1510 1509 1508 1507 1506 1505 1504 1503 1502 1500 1499 1498 1496 1494
1489 1491 1492 1494 1495 1497 1498 1499 1500 1500 1501 1502 1503 1504 1505 1506 1507 1507 1507 1506 1506 1507 1507 1507 1508 1508 1508 1508 1507 1506 1506 1505 1504 1503 1502 1501 1500 1498 1497 1496 1494 1493 1491
1487 1488 1490 1491 1492 1494 1495 1496 1496 1497 1498 1499 1500 1501 1502 1502 1503 1503 1503 1503 1502 1503 1503 1503 1504 1504 1504 1504 1504 1503 1502 1501 1501 1500 1499 1498 1496 1495 1494 1492 1491 1489 1488
1484 1485 1487 1488 1489 1490 1491 1492 1493 1494 1495 1496 1497 1497 1498 1498 1499 1500 1500 1500 1500 1499 1498 1499 1500 1500 1500 1501 1500 1500 1499 1498 1497 1496 1495 1494 1493 1492 1490 1489 1487 1486 1485
1481 1482 1483 1484 1485 1486 1488 1489 1490 1491 1492 1492 1493 1494 1495 1495 1495 1495 1496 1496 1497 1496 1495 1495 1496 1496 1497 1497 1497 1496 1496 1495 1494 1493 1492 1491 1490 1488 1487 1486 1484 1483 1482
1478 1479 1480 1481 1482 1483 1484 1485 1486 1487 1488 1489 1490 1490 1490 1491 1491 1492 1492 1492 1492 1493 1492 1492 1493 1493 1493 1493 1493 1493 1492 1491 1490 1489 1488 1487 1486 1485 1484 1482 1481 1480 1478
1475 1476 1477 1478 1479 1480 1481 1482 1483 1484 1485 1485 1486 1486 1486 1487 1487 1488 1488 1488 1488 1489 1489 1488 1488 1489 1489 1489 1489 1489 1488 1487 1487 1486 1485 1484 1483 1482 1480 1479 1477 1476 1475
1472 1473 1474 1475 1475 1476 1477 1478 1480 1480 1481 1482 1482 1483 1483 1484 1484 1484 1484 1484 1485 1485 1485 1485 1485 1485 1485 1485 1485 1485 1485 1484 1483 1482 1482 1481 1480 1478 1477 1476 1475 1474 1472
1469 1470 1471 1472 1472 1473 1474 1475 1476 1477 1478 1478 1479 1480 1480 1480 1481 1481 1481 1481 1481 1481 1481 1481 1481 1481 1481 1481 1481 1480 1480 1480 1479 1479 1478 1477 1476 1475 1474 1473 1472 1470 1469
1466 1467 1468 1468 1469 1470 1471 1471 1472 1474 1474 1475 1475 1476 1477 1477 1477 1478 1477 1477 1478 1477 1477 1478 1478 1477 1477 1477 1477 1476 1476 1475 1475 1475 1474 1473 1472 1471 1470 1469 1468 1467 1466
1462 1463 1464 1465 1466 1466 1468 1468 1469 1470 1471 1471 1472 1472 1473 1473 1474 1474 1474 1474 1475 1474 1474 1474 1474 1474 1473 1473 1473 1473 1472 1471 1470 1471 1470 1469 1468 1467 1466 1465 1464 1463 1462
1459 1460 1461 1461 1462 1463 1464 1465 1465 1467 1467 1468 1468 1469 1469 1470 1470 1470 1470 1470 1471 1471 1471 1471 1471 1470 1470 1470 1470 1469 1469 1468 1467 1466 1466 1464 1464 1463 1463 1462 1461 1460 1459
1456 1456 1457 1458 1459 1460 1461 1461 1462 1463 1463 1464 1465 1466 1466 1466 1466 1466 1466 1466 1467 1467 1467 1467 1467 1467 1467 1467 1466 1466 1465 1465 1464 1463 1462 1460 1459 1459 1459 1458 1457 1457 1456
1452 1453 1454 1454 1455 1457 1457 1458 1459 1459 1460 1461 1462 1462 1462 1462 1463 1463 1463 1463 1463 1463 1463 1463 1463 1463 1463 1462 1462 1462 1461 1460 1458 1458 1458 1457 1455 1455 1454 1454 1454 1453 1452
1449 1450 1450 1451 1452 1453 1454 1455 1456 1456 1457 1457 1458 1458 1459 1459 1459 1459 1459 1459 1459 1459 1459 1459 1459 1459 1459 1458 1458 1457 1456 1455 1454 1454 1453 1453 1452 1452 1450 1450 1450 1450 1449